Location: Caltech
(34.1382°N, 118.1253°W)
Time: 09:56:51
(UTC-07:00)

Cosmos 2251 Rocket - Visible Passes

Search period start: 26 March 2017 00:00
Search period end: 05 April 2017 00:00
Orbit: 765 x 792 km, 74.0° (Epoch: 24 March)

Date Brightness Start Highest point End Pass type
(mag) Time Alt. Az. Time Alt. Az. Time Alt. Az.
26 Mar 4.7 21:11:22 10° N 21:14:41 30° NNE 21:14:41 30° NNE visible
26 Mar 6.3 22:54:18 10° NW 22:55:13 14° WNW 22:55:13 14° WNW visible
27 Mar 4.8 20:38:03 10° NNE 20:41:56 23° ENE 20:41:56 23° ENE visible
27 Mar 5.5 22:19:45 10° NW 22:22:26 26° WNW 22:22:26 26° WNW visible
28 Mar 5.2 20:05:15 10° NNE 20:08:08 14° ENE 20:09:13 14° ENE visible
28 Mar 4.3 21:45:33 10° NNW 21:49:45 50° NW 21:49:45 50° NW visible
29 Mar 3.4 21:11:37 10° NNW 21:16:58 80° ENE 21:17:07 79° E visible
30 Mar 3.8 20:37:53 10° N 20:43:04 48° ENE 20:44:34 38° ESE visible
30 Mar 5.9 22:21:34 10° WNW 22:24:52 17° W 22:25:06 17° W visible
31 Mar 4.5 20:04:25 10° N 20:09:03 29° ENE 20:12:07 18° ESE visible
31 Mar 5.2 21:46:42 10° NW 21:51:12 28° W 21:52:39 25° SW visible
01 Apr 5.0 19:31:17 10° NNE 19:34:57 18° ENE 19:38:38 10° ESE visible
01 Apr 4.4 21:12:21 10° NNW 21:17:28 47° WSW 21:20:18 24° SSW visible
02 Apr 3.6 20:38:18 10° NNW 20:43:40 80° WSW 20:48:04 15° S visible
03 Apr 3.6 20:04:28 10° N 20:09:46 62° ENE 20:15:05 10° SSE visible
03 Apr 6.3 21:49:13 10° WNW 21:51:25 13° W 21:53:38 10° WSW visible
04 Apr 5.8 21:13:47 10° NW 21:17:48 22° W 21:21:47 10° SW visible
